Tracking 20710 objects as of 30-May-2020
HD Live streaming from Space Station
objects crossing your sky now

STARLINK-64

Track STARLINK-64 now!
10-day predictions
STARLINK-64 is classified as:


NORAD ID: 44275
Int'l Code: 2019-029AS
Perigee: 456.4 km
Apogee: 462.7 km
Inclination: 53.0 °
Period: 93.6 minutes
Semi major axis: 6830 km
RCS: Unknown
Launch date: May 24, 2019
Source: United States (US)
Launch site: AIR FORCE EASTERN TEST RANGE (AFETR)
aabbcc
Your satellite tracking list
Your tracking list is empty




NASA's NSSDC Master Catalog

Two Line Element Set (TLE):
1 44275U 19029AS  20150.91667824 -.00007757  00000-0 -19507-3 0  9997
2 44275  52.9915 271.8434 0004585 252.6536 101.3992 15.37863835 56572
Source of the keplerian elements: AFSPC